Fairborn, OH

2:01 PM EST on February 10, 2016 (GMT -0500)
Wright-Patterson Air Force Base

Weather History for KFFO - May, 2013

Change the Weather History Date:

Sunday, May 19, 2013

  Actual Average Record
Temperature  
Mean Temperature 71 °F -  
Max Temperature 82 °F 70 °F 86 °F (1998)
Min Temperature 60 °F 49 °F 30 °F (2002)
Cooling Degree Days 6    
Growing Degree Days 21 (Base 50)    
Moisture  
Dew Point 64 °F    
Average Humidity 83    
Maximum Humidity 100    
Minimum Humidity 54    
Precipitation  
Precipitation 0.00 in - - ()
Sea Level Pressure  
Sea Level Pressure 29.99 in    
Wind  
Wind Speed 3 mph (SE)    
Max Wind Speed 8 mph    
Max Gust Speed -    
Visibility 8 miles    
Events Fog , Rain    
Averages and records for this station are not official NWS values.
T = Trace of Precipitation, MM = Missing Value Source: NWS Daily Summary

Daily Weather History Graph

Daily Weather History Graph

Search for Another Location

Airport or City:

Trip Planner

Search our weather history database for the weather conditions in past years. The results will help you decide how hot, cold, wet, or windy it might be!

Date:

Astronomy

May. 19, 2013 Rise Set
Actual Time 6:17 AM EDT 8:48 PM EDT
Civil Twilight 5:46 AM EDT 9:19 PM EDT
Nautical Twilight 5:08 AM EDT 9:57 PM EDT
Astronomical Twilight 4:25 AM EDT 10:40 PM EDT
Moon 2:52 PM EDT (5/19) 2:40 AM EDT (5/19)
Length of Visible Light 15h 32m
Length of Day
14h 30m
Waxing Gibbous, 65% of the Moon is Illuminated
May 19
Waxing Gibbous
May 25
Full
May 31
Last Quarter
Jun 8
New
Jun 16
First Quarter

Hourly Weather History & Observations

Time (EDT) Temp. Heat Index Dew Point Humidity Pressure Visibility Wind Dir Wind Speed Gust Speed Precip Events Conditions
12:58 AM 66.6 °F - 63.1 °F 89% 30.00 in 10.0 mi NNE 2.3 mph - N/A   Partly Cloudy
1:28 AM 66.2 °F - 62.6 °F 88% 29.99 in 9.0 mi NNW 1.2 mph - N/A   Partly Cloudy
1:58 AM 65.3 °F - 62.4 °F 90% 29.99 in 8.0 mi Calm Calm - N/A   Partly Cloudy
2:58 AM 63.7 °F - 62.6 °F 96% 29.98 in 8.0 mi NNE 2.3 mph - N/A Fog Patches of Fog
3:58 AM 64.0 °F - 63.5 °F 98% 29.98 in 7.0 mi Calm Calm - N/A Fog Patches of Fog
4:08 AM 64.4 °F - 62.6 °F 94% 29.99 in 7.0 mi Calm Calm - N/A Fog Patches of Fog
4:58 AM 62.2 °F - 61.9 °F 99% 29.99 in 7.0 mi North 1.2 mph - N/A Fog Patches of Fog
5:28 AM 60.8 °F - 60.8 °F 100% 29.99 in 4.0 mi NW 2.3 mph - N/A   Clear
5:58 AM 60.4 °F - 60.1 °F 99% 30.00 in 4.0 mi ENE 2.3 mph - N/A   Scattered Clouds
6:18 AM 60.8 °F - 60.8 °F 100% 30.00 in 4.0 mi Calm Calm - N/A   Mostly Cloudy
6:38 AM 64.4 °F - 64.4 °F 100% 30.01 in 3.0 mi Calm Calm - N/A   Mostly Cloudy
6:58 AM 64.0 °F - 64.0 °F 100% 30.01 in 3.0 mi Calm Calm - N/A   Mostly Cloudy
7:18 AM 64.4 °F - 64.4 °F 100% 30.01 in 3.0 mi East 3.5 mph - N/A   Overcast
7:38 AM 64.4 °F - 64.4 °F 100% 30.01 in 0.8 mi ESE 4.6 mph - N/A   Overcast
7:48 AM 66.2 °F - 66.2 °F 100% 30.01 in 1.0 mi SE 5.8 mph - N/A   Overcast
7:58 AM 66.2 °F - 66.2 °F 100% 30.01 in 1.5 mi SE 4.6 mph - N/A   Overcast
8:08 AM 66.2 °F - 66.2 °F 100% 30.01 in 2.0 mi SSE 4.6 mph - N/A   Overcast
8:18 AM 66.2 °F - 66.2 °F 100% 30.01 in 3.0 mi SSE 3.5 mph - N/A   Mostly Cloudy
8:48 AM 68.0 °F - 68.0 °F 100% 30.01 in 6.0 mi SSE 4.6 mph - N/A   Mostly Cloudy
8:58 AM 68.0 °F - 68.0 °F 100% 30.01 in 6.0 mi SSE 3.5 mph - N/A   Mostly Cloudy
9:15 AM 68.0 °F - 66.2 °F 94% 30.01 in 10.0 mi SE 4.6 mph - N/A   Mostly Cloudy
9:35 AM 69.8 °F - 66.2 °F 88% 30.01 in 10.0 mi South 4.6 mph - N/A   Mostly Cloudy
9:58 AM 69.8 °F - 65.7 °F 87% 30.01 in 10.0 mi ESE 4.6 mph - N/A   Mostly Cloudy
10:01 AM 69.8 °F - 66.2 °F 88% 30.01 in 10.0 mi SE 5.8 mph - N/A Rain Light Rain
10:10 AM 71.6 °F - 66.2 °F 83% 30.01 in 10.0 mi SE 4.6 mph - N/A   Mostly Cloudy
10:30 AM 71.6 °F - 66.2 °F 83% 30.01 in 10.0 mi SSW 2.3 mph - N/A   Mostly Cloudy
10:58 AM 71.6 °F - 65.3 °F 80% 30.02 in 10.0 mi SW 5.8 mph - N/A   Overcast
11:18 AM 71.6 °F - 66.2 °F 83% 30.03 in 10.0 mi SW 6.9 mph - N/A   Mostly Cloudy
11:58 AM 74.3 °F - 66.2 °F 76% 30.02 in 10.0 mi SW 5.8 mph - N/A   Mostly Cloudy
12:08 PM 75.2 °F - 64.4 °F 69% 30.01 in 10.0 mi WSW 4.6 mph - N/A   Mostly Cloudy
12:28 PM 75.2 °F - 66.2 °F 73% 30.01 in 10.0 mi SW 3.5 mph - N/A   Mostly Cloudy
12:58 PM 74.7 °F - 64.4 °F 70% 30.00 in 10.0 mi SW 4.6 mph - N/A   Mostly Cloudy
1:58 PM 77.2 °F - 65.3 °F 67% 29.99 in 10.0 mi Variable 2.3 mph - 0.00 in   Mostly Cloudy
2:58 PM 80.2 °F 81.5 °F 62.6 °F 55% 29.96 in 10.0 mi Variable 3.5 mph - N/A   Scattered Clouds
3:58 PM 79.7 °F - 62.4 °F 55% 29.95 in 10.0 mi ESE 4.6 mph - N/A   Scattered Clouds
4:58 PM 81.5 °F 83.1 °F 64.2 °F 56% 29.93 in 10.0 mi East 3.5 mph - N/A   Scattered Clouds
5:58 PM 82.0 °F 83.4 °F 63.7 °F 54% 29.93 in 10.0 mi ESE 4.6 mph - N/A   Scattered Clouds
6:58 PM 81.3 °F 82.9 °F 64.0 °F 56% 29.93 in 10.0 mi South 6.9 mph - N/A   Scattered Clouds
7:58 PM 79.3 °F - 64.2 °F 60% 29.93 in 10.0 mi East 8.1 mph - N/A   Partly Cloudy
8:58 PM 76.5 °F - 63.0 °F 63% 29.93 in 10.0 mi SSE 4.6 mph - N/A   Partly Cloudy
9:00 PM 77.0 °F - 62.6 °F 61% 29.93 in 10.0 mi ESE 5.8 mph - N/A   Clear
9:58 PM 73.6 °F - 63.3 °F 70% 29.94 in 10.0 mi SSE 3.5 mph - N/A   Clear
10:58 PM 72.7 °F - 63.3 °F 72% 29.95 in 10.0 mi ESE 6.9 mph - N/A   Clear
11:58 PM 71.8 °F - 63.7 °F 76% 29.95 in 10.0 mi SSE 4.6 mph - N/A   Clear